STARLINK-1042, 44747

Orbit data source: Space-Track

STARLINK-1042, 44747 is a payload satellite owned by SpaceX/Seattle (US) in LEO that was launched on Mon, 11 Nov 2019 UTC via an FALCON 9 launch vehicle from the Air Force Eastern Test Range (AFETR). Payload-class satellites include a variety of spacecraft equipped with specific instruments for various scientific and technological missions. These include communications satellites like Starlink; space stations such as the ISS; scientific satellites like the Hubble; Earth observation satellites from companies like Planet Labs, Umbra, and HawkEye 360; GPS; miniature CubeSats for education and research; and military/defense satellites.

Loading next visibility...
Identifier
44747, 2019-074AL
Orbit
LEO
Last TLE update
8 hours ago
Origin
Manufacturer
SpaceX/Seattle
Mission
Partially operational Commercial Communications
Bus & Motor
STARLINK, Unknown motor
Mass
260 kg wet, ~248 kg dry
Launch date (UTC)
2019-11-11 (6 years ago)
Launch vehicle
FALCON 9
Launch site
Air Force Eastern Test Range (AFETR)
Object type
Payload
Rocket body
Debris
Shape & HBR
Box + 1 Pan, 8.86 m
Radar Cross Section
13.562 m², Large (>1 m²)

Expand to show TLE details & history

TLE from 8 hours ago
0 STARLINK-1042
1 44747U 19074AL  25182.09496229  .00008189  00000-0  22217-3 0  9999
2 44747  53.0472 210.3835 0003820  82.9967 277.1470 15.38525733311381
Epoch: 2025-07-01T02:16Z
TLE epoch observation values (Epoch: 2025-07-01T02:16:44.741Z)
Latitude
-0.00006°
Longitude
-103.19831°
Altitude
451.035 km
Speed
7.643 km/s
True Right ascension
14h 01m 32s
True Declination
0° 00' 00"
Sunlit
Object was in daylight at epoch
Visualization orbit readout
Latitude
5.93829°
Longitude
-100.27408°
Altitude
450.158 km
Speed
7.644 km/s
Apparent Right ascension
12h 23m 31s
Apparent Declination
-18° 58' 26"
Sunlit
Object is in daylight
Visualization observer readout
Local Sidereal Time
21:44:46
Azimuth
289.813° WNW
Elevation
-50.066°
Doppler factor
1
Orbital elements
Apogee altitude
453.352 km
Perigee altitude
448.135 km
Semi-major axis
6,828.881 km
Eccentricity
0.00038
Inclination
53.0472°
RAAN
210.3835°
Arg. of periapsis
82.9967°
True anomaly
Unknown
Mean anomaly
277.147°
Eccentric anomaly
Unknown
Mean motion
3.84609 °/min
Orbital period
93.6 mins
BSTAR
0.00022217
Loading maneuver chart data...
Loading SW <> Apogee altitude chart data...

STARLINK-1042 Visibility forecast

Observer location: undefined°, undefined°

Span
Click to sort rows by Start time (UTC) header in descending order
Start Az.
Max El. time (UTC)
Max El. Az.
Max El.
End time (UTC)
End Az.
5 mins2025-07-01 10:32:22.751Z338.207° N2025-07-01 10:34:22.751Z22.098° NNE23.433°2025-07-01 10:37:22.751Z85.436° E
4 mins2025-07-01 12:10:22.751Z282° WNW2025-07-01 12:12:22.751Z209.208° SW32.769°2025-07-01 12:14:22.751Z161.178° S
4 mins2025-07-02 05:00:22.751Z263.427° W2025-07-02 05:01:22.751Z294.087° NW35.502°2025-07-02 05:04:22.751Z36.499° NE
4 mins2025-07-02 09:55:22.751Z348.588° N2025-07-02 09:57:22.751Z34.669° NE19.65°2025-07-02 09:59:22.751Z72.895° E
|